STARLINK-11560, 62917

Orbit data source: Space-Track

STARLINK-11560, 62917 is a payload satellite owned by SpaceX/Seattle (US) in LEO that was launched on Sat, 08 Feb 2025 UTC via an FALCON 9 launch vehicle from the Air Force Eastern Test Range (AFETR). Payload-class satellites include a variety of spacecraft equipped with specific instruments for various scientific and technological missions. These include communications satellites like Starlink; space stations such as the ISS; scientific satellites like the Hubble; Earth observation satellites from companies like Planet Labs, Umbra, and HawkEye 360; GPS; miniature CubeSats for education and research; and military/defense satellites.

Loading next visibility...
Identifier
62917, 2025-027L
Orbit
LEO
Last TLE update
21 hours ago
Origin
Manufacturer
SpaceX/Seattle
Mission
Operational Commercial Communications
Bus & Motor
STARLINK V2M, Unknown motor
Mass
730 kg wet, ~700 kg dry
Launch date (UTC)
2025-02-08 (3 months ago)
Launch vehicle
FALCON 9
Launch site
Air Force Eastern Test Range (AFETR)
Object type
Payload
Rocket body
Debris
Shape & HBR
Box + 2 Pan, 29 m
Radar Cross Section
36.964 m², Large (>1 m²)

Expand to show TLE details & history

TLE from 21 hours ago
0 STARLINK-11560
1 62917U 25027L   25128.43388082  .00001859  00000-0  17989-4 0  9996
2 62917  43.0051  27.6094 0000957 274.4336  85.6423 15.70824086 15126
Epoch: 2025-05-08T10:24Z
Definitive object data (Epoch: 2025-05-08T10:24:47.302Z)
Latitude
0.00001°
Longitude
4.90788°
Altitude
356.263 km
Speed
7.697 km/s
True Right ascension
01h 50m 26s
True Declination
0° 00' 00"
Sunlit
Object was in daylight at TLE epoch
Visualization TLE readout
Latitude
3.66302°
Longitude
175.82396°
Altitude
356.075 km
Speed
7.698 km/s
Apparent Right ascension
10h 17m 44s
Apparent Declination
-47° 15' 30"
Sunlit
Object is in full shadow
Visualization observer readout
Local Sidereal Time
15:08:22
Azimuth
223.067° SW
Elevation
-18.426°
Doppler factor
1
Orbital elements
Apogee altitude
359.166 km
Perigee altitude
357.877 km
Semi-major axis
6,736.658 km
Eccentricity
0.0000957
Inclination
43.0051°
RAAN
27.6094°
Arg. of periapsis
274.4336°
True anomaly
85.65323°
Mean anomaly
85.6423°
Eccentric anomaly
85.64777°
Mean motion
3.92533 °/min
BSTAR
0.000017989
Orbital period
91.71 mins
Loading maneuver chart data...
Loading SW <> Apogee altitude chart data...
Loading historical data...
Loading historical data...
Loading historical data...
Loading historical data...
Loading historical data...
Loading historical data...
Loading historical data...

STARLINK-11560 Visibility forecast

Observer location: undefined°, undefined°

Span
Click to sort rows by Start time (UTC) header in descending order
Start Az.
Max El. time (UTC)
Max El. Az.
Max El.
End time (UTC)
End Az.
5 mins2025-05-09 20:11:26.977Z213.695° SW2025-05-09 20:14:26.977Z130.709° SE25.413°2025-05-09 20:16:26.977Z88.551° E
4 mins2025-05-09 21:48:26.977Z272.588° WNW2025-05-09 21:50:26.977Z34.967° NE37.764°2025-05-09 21:52:26.977Z67.525° E
|